Burns Flat, OK

5:28 AM CST on December 10, 2016 (GMT -0600)
Clinton-Sherman

Weather History for KCSM - August, 2013

Change the Weather History Date:

Sunday, August 4, 2013

  Actual Average Record
Temperature  
Mean Temperature 88 °F -  
Max Temperature 102 °F 93 °F 109 °F (2012)
Min Temperature 75 °F 69 °F 66 °F (2014)
Cooling Degree Days 22    
Growing Degree Days 38 (Base 50)    
Moisture  
Dew Point 60 °F    
Average Humidity 41    
Maximum Humidity 64    
Minimum Humidity 22    
Precipitation  
Precipitation 0.00 in - - ()
Sea Level Pressure  
Sea Level Pressure 29.93 in    
Wind  
Wind Speed 13 mph (South)    
Max Wind Speed 18 mph    
Max Gust Speed 22 mph    
Visibility 10 miles    
Events      
Averages and records for this station are not official NWS values.
T = Trace of Precipitation, MM = Missing Value Source: NWS Daily Summary

Daily Weather History Graph

Daily Weather History Graph

Search for Another Location

Airport or City:

Trip Planner

Search our weather history database for the weather conditions in past years. The results will help you decide how hot, cold, wet, or windy it might be!

Date:

Astronomy

Aug. 04, 2013 Rise Set
Actual Time 6:48 AM CDT 8:37 PM CDT
Civil Twilight 6:20 AM CDT 9:04 PM CDT
Nautical Twilight 5:46 AM CDT 9:38 PM CDT
Astronomical Twilight 5:11 AM CDT 10:13 PM CDT
Moon 4:51 AM CDT (8/4) 7:01 PM CDT (8/4)
Length of Visible Light 14h 44m
Length of Day
13h 49m
Waning Crescent, 4% of the Moon is Illuminated
Aug 4
Waning Crescent
Aug 6
New
Aug 14
First Quarter
Aug 20
Full
Aug 28
Last Quarter

Hourly Weather History & Observations

Time (CDT) Temp. Heat Index Dew Point Humidity Pressure Visibility Wind Dir Wind Speed Gust Speed Precip Events Conditions
12:53 AM 82.9 °F 84.0 °F 63.0 °F 51% 29.95 in 10.0 mi SE 13.8 mph - N/A   Clear
1:53 AM 82.0 °F 83.1 °F 63.0 °F 52% 29.93 in 10.0 mi SSE 12.7 mph - N/A   Clear
2:53 AM 82.0 °F 83.1 °F 63.0 °F 52% 29.93 in 10.0 mi South 15.0 mph - N/A   Clear
3:53 AM 80.1 °F 81.5 °F 63.0 °F 56% 29.95 in 10.0 mi South 15.0 mph - N/A   Clear
4:53 AM 79.0 °F - 62.1 °F 56% 29.95 in 10.0 mi South 13.8 mph - N/A   Clear
5:53 AM 78.1 °F - 63.0 °F 60% 29.96 in 10.0 mi South 10.4 mph - N/A   Clear
6:53 AM 75.9 °F - 63.0 °F 64% 29.98 in 10.0 mi SSW 9.2 mph - N/A   Partly Cloudy
7:53 AM 79.0 °F - 63.0 °F 58% 29.99 in 10.0 mi SW 9.2 mph - N/A   Clear
8:53 AM 84.0 °F 84.9 °F 63.0 °F 49% 30.00 in 10.0 mi South 11.5 mph - N/A   Clear
9:53 AM 84.9 °F 85.4 °F 62.1 °F 46% 29.99 in 10.0 mi South 12.7 mph - N/A   Clear
10:53 AM 89.1 °F 89.3 °F 62.1 °F 40% 29.97 in 10.0 mi SSW 10.4 mph - N/A   Clear
11:53 AM 93.9 °F 93.6 °F 60.1 °F 32% 29.96 in 10.0 mi SW 13.8 mph 21.9 mph N/A   Clear
12:53 PM 95.0 °F 94.4 °F 59.0 °F 30% 29.96 in 10.0 mi WSW 15.0 mph - N/A   Clear
1:53 PM 97.0 °F 96.5 °F 59.0 °F 28% 29.94 in 10.0 mi WSW 11.5 mph - N/A   Clear
2:53 PM 99.0 °F 98.1 °F 57.9 °F 25% 29.93 in 10.0 mi WSW 4.6 mph - N/A   Clear
3:53 PM 100.9 °F 99.6 °F 55.0 °F 22% 29.90 in 10.0 mi South 11.5 mph 17.3 mph N/A   Mostly Cloudy
4:53 PM 100.9 °F 99.6 °F 55.0 °F 22% 29.88 in 10.0 mi South 13.8 mph 19.6 mph N/A   Clear
5:53 PM 100.9 °F 99.6 °F 55.0 °F 22% 29.87 in 10.0 mi SSE 13.8 mph - N/A   Clear
6:53 PM 98.1 °F 96.4 °F 55.9 °F 24% 29.86 in 10.0 mi South 15.0 mph - N/A   Clear
7:53 PM 95.0 °F 93.7 °F 57.0 °F 28% 29.87 in 10.0 mi South 15.0 mph - N/A   Clear
8:53 PM 91.0 °F 89.7 °F 57.0 °F 32% 29.88 in 10.0 mi South 10.4 mph - N/A   Clear
9:53 PM 88.0 °F 89.3 °F 64.0 °F 45% 29.91 in 10.0 mi SE 18.4 mph - N/A   Clear
10:53 PM 86.0 °F 86.8 °F 63.0 °F 46% 29.92 in 10.0 mi SSE 16.1 mph - N/A   Clear
11:53 PM 84.9 °F 85.0 °F 61.0 °F 44% 29.91 in 10.0 mi SSE 16.1 mph - N/A   Clear